[[{"header":{"parameterUnit":"m.s-1","parameterCategory":1,"la1":30.2991,"la2":30.254,"lo1":-89.0895,"lo2":-89.0444,"dy":0.0017,"dx":0.0017,"nx":28,"ny":28,"refTime":"2025-01-30T03:00:00:Z","depth":0,"parameterNumber":2,"parameterNumberName":"U-component_of_WINDS"},"data":[0,0,0,0,0,0,0,0,0,0,0,0,0,0,0,0,0,0,0,0,0,0,0,0,0,0,0,0,0,0,0,0,0,0,0,0,0,0,0,0,0,0,0,0,0,0,0,0,0,0,0,0,0,0,0,0,0,0,3.7754,3.7753,0,3.7731,3.773,3.773,3.7648,3.7646,3.7644,3.7643,3.7619,3.762,3.7621,0,0,0,0,0,0,0,0,0,0,0,0,0,3.7728,3.7729,3.7754,3.7753,3.7753,3.7731,3.773,3.773,3.7648,3.7646,3.7644,3.7642,3.7618,3.762,3.7621,0,0,0,0,0,0,0,0,0,0,0,0,0,3.7726,3.7729,3.7754,3.771,3.7706,3.7731,3.773,3.773,3.7649,3.7646,3.7643,3.7641,3.7618,3.762,3.7621,3.7687,0,0,3.7626,3.7627,0,0,0,0,0,0,0,0,3.7726,3.7727,3.7716,3.7713,3.7708,3.7689,3.7712,3.7716,3.765,3.767,3.7643,3.7639,3.7644,3.7644,3.7646,3.7686,3.7685,3.7626,3.7627,3.7628,3.7628,0,0,0,0,0,0,0,3.7726,3.7727,3.7745,3.7716,3.7711,3.7692,3.7688,3.7713,3.7673,3.7668,3.7662,3.7661,3.7642,3.7644,3.7644,3.7684,3.7626,3.7628,3.7629,3.7629,3.778,3.7783,0,0,0,0,0,0,3.7733,3.7728,3.7745,3.7744,3.771,3.7694,3.769,3.7698,3.7673,3.7666,3.7663,3.7657,3.7643,3.7643,3.7643,3.7719,3.7628,3.7629,3.763,3.7777,3.778,3.7784,0,0,0,0,0,0,3.7732,3.7735,3.7746,3.7734,3.7734,3.7698,3.7707,3.7699,3.7702,3.7669,3.7662,3.7673,3.7641,3.7641,3.7677,3.7717,3.763,3.7632,3.7773,3.7778,3.7782,3.7872,0,0,0,0,0,0,3.7732,3.7735,3.7759,3.7735,3.7735,3.778,3.771,3.7701,3.7705,3.7696,3.7676,3.767,3.7638,3.7675,3.7679,3.7718,3.7633,3.7769,3.7775,3.7781,3.7865,3.7879,3.7891,0,0,0,0,0,3.7731,3.7785,3.7761,3.7764,3.7765,3.7783,3.7783,3.7745,3.7708,3.7733,3.7712,3.7671,3.7713,3.768,3.7683,3.7723,3.7767,3.7774,3.778,3.786,3.7876,3.7891,0,0,0,0,0,0,3.7814,3.7781,3.7754,3.7801,3.7796,3.7769,3.7798,3.7764,3.7768,3.776,3.7714,3.771,3.7753,3.7742,3.7705,3.7787,3.7733,3.7741,3.7792,3.7808,3.7821,3.7822,3.7634,0,0,0,0,0,3.7838,3.7855,3.7826,3.7871,3.7869,3.7835,3.7841,3.7813,3.7805,3.7802,3.7784,3.7778,3.779,3.7798,3.7807,3.7864,3.7859,3.7894,3.7906,3.7917,3.7924,3.7954,3.797,3.7806,3.7806,3.7806,0,0,3.7887,3.7871,3.7885,3.7887,3.7879,3.7899,3.7833,3.7856,3.787,3.7805,3.7838,3.7826,3.7816,3.7863,3.7883,3.7855,3.7969,3.7926,3.7935,3.7936,3.7963,3.7979,3.7992,3.781,3.781,3.7809,0,0,3.7986,3.7976,3.8013,3.8007,3.7996,3.7974,3.7983,3.7962,3.7951,3.7984,3.7936,3.7953,3.7974,3.797,3.797,3.8072,3.8034,3.8076,3.8142,3.8173,3.8185,3.8197,3.8233,3.8247,3.8083,3.8084,3.8084,0,3.8048,3.8075,3.8036,3.8063,3.8066,3.801,3.8047,3.8043,3.8036,3.804,3.8009,3.8036,3.8025,3.8071,3.8097,3.8099,3.8108,3.8077,3.8187,3.8198,3.8208,3.8242,3.8256,3.8089,3.8088,3.8088,3.8087,0,3.8153,3.8173,3.8204,3.82,3.8206,3.8239,3.8205,3.8216,3.8189,3.817,3.8205,3.8191,3.8197,3.8206,3.8179,3.8249,3.8232,3.8195,3.814,3.8229,3.826,3.8273,3.8096,3.8094,3.8093,3.8091,0,0,3.83,3.8276,3.8288,3.8287,3.8273,3.8287,3.8318,3.8325,3.8336,3.8334,3.8359,3.8379,3.8346,3.8347,3.8319,3.8346,3.8428,3.8305,3.8304,3.8328,3.8505,3.8532,3.8548,3.8404,3.8406,3.8408,3.8506,0,3.8395,3.8445,3.8412,3.8468,3.8487,3.8436,3.8462,3.8457,3.8441,3.8455,3.8437,3.8452,3.8407,3.8407,3.8431,3.8413,3.8462,3.8405,3.8426,3.8427,3.8429,3.8564,3.8593,3.8686,3.8518,3.852,3.8521,0,3.8511,3.8515,3.8574,3.8558,3.8564,3.8589,3.8594,3.8608,3.8601,3.8588,3.859,3.8557,3.8586,3.8534,3.8574,3.8536,3.8543,3.8536,3.8538,3.8538,3.8479,3.8567,3.8714,3.8728,3.854,3.8539,3.8537,0,3.8613,3.8634,3.8671,3.8672,3.8654,3.8673,3.8667,3.8658,3.8664,3.8669,3.8673,3.8681,3.8685,3.8692,3.8661,3.8626,3.8706,3.8651,3.8696,3.8697,3.8714,3.8713,3.8864,3.872,3.872,3.872,3.8719,0,3.8721,3.8759,3.8717,3.8741,3.8782,3.8745,3.8787,3.8775,3.8768,3.8788,3.8745,3.8765,3.8724,3.874,3.8717,3.8755,3.8757,3.8747,3.874,3.875,3.8752,3.8753,3.8745,3.8723,3.8723,3.8722,3.8721,0,3.8841,3.8815,3.8853,3.8834,3.8831,3.8862,3.8846,3.8867,3.8849,3.8876,3.888,3.8852,3.8869,3.884,3.8853,3.8838,3.889,3.8874,3.8892,3.8887,3.8934,3.893,3.909,3.9109,3.8955,3.8956,3.8958,0,3.8911,3.8939,3.8924,3.8935,3.8932,3.895,3.8957,3.8923,3.8932,3.8929,3.8951,3.8965,3.8974,3.9004,3.8985,3.8995,3.8978,3.9034,3.8979,3.8989,3.8978,3.8977,3.898,3.9044,3.9046,3.9048,3.9049,0,3.9038,3.9025,3.9037,3.9046,3.9057,3.9062,3.9064,3.9075,3.9039,3.9052,3.907,3.9077,3.9092,3.9106,3.9113,3.9106,3.9072,3.9067,3.9078,3.9088,3.9097,3.9093,3.8922,3.9063,3.9061,3.906,3.906,3.9059,3.9135,3.9158,3.9152,3.9168,3.9167,3.917,3.9189,3.9175,3.9189,3.9199,3.9178,3.9201,3.9196,3.9202,3.9199,3.9217,3.9192,3.9208,3.9212,3.9216,3.9224,3.9096,3.9218,3.9218,3.9217,3.9217,3.9217,0,3.926,3.9254,3.9269,3.9274,3.9288,3.9256,3.9257,3.927,3.9291,3.929,3.9301,3.9322,3.9336,3.932,3.9331,3.9349,3.9334,3.9353,3.9351,3.935,3.9245,3.9234,3.9365,3.9365,3.9365,3.9365,3.9365,3.9365,3.9326,3.9364,3.935,3.9388,3.9382,3.9404,3.9408,3.9412,3.941,3.9436,3.9449,3.9438,3.9431,3.9442,3.9455,3.9449,3.9455,3.948,3.947,3.9372,3.9357,3.9343,3.9333,3.9482,3.9482,3.9573,3.9574,3.9574]},{"header":{"parameterUnit":"m.s-1","parameterCategory":1,"la1":30.2991,"la2":30.254,"lo1":-89.0895,"lo2":-89.0444,"dy":0.0017,"dx":0.0017,"nx":28,"ny":28,"refTime":"2025-01-30T03:00:00:Z","depth":0,"parameterNumber":3,"parameterNumberName":"V-component_of_WINDS"},"data":[0,0,0,0,0,0,0,0,0,0,0,0,0,0,0,0,0,0,0,0,0,0,0,0,0,0,0,0,0,0,0,0,0,0,0,0,0,0,0,0,0,0,0,0,0,0,0,0,0,0,0,0,0,0,0,0,0,0,-1.5523,-1.5521,0,-1.5296,-1.5293,-1.5291,-1.5223,-1.5224,-1.5225,-1.5226,-1.4982,-1.4974,-1.4967,0,0,0,0,0,0,0,0,0,0,0,0,0,-1.589,-1.5884,-1.5524,-1.5521,-1.5518,-1.5297,-1.5293,-1.529,-1.5223,-1.5224,-1.5225,-1.5227,-1.4984,-1.4975,-1.4966,0,0,0,0,0,0,0,0,0,0,0,0,0,-1.5703,-1.5882,-1.5524,-1.5458,-1.545,-1.5297,-1.5293,-1.5289,-1.5222,-1.5224,-1.5226,-1.5227,-1.4987,-1.4976,-1.4965,-1.4859,0,0,-1.493,-1.4925,0,0,0,0,0,0,0,0,-1.5714,-1.569,-1.547,-1.5462,-1.5453,-1.529,-1.5333,-1.5145,-1.5222,-1.5308,-1.5226,-1.5228,-1.5082,-1.5063,-1.5016,-1.4847,-1.4837,-1.4929,-1.4922,-1.4917,-1.4914,0,0,0,0,0,0,0,-1.5727,-1.5699,-1.5433,-1.5467,-1.5456,-1.5436,-1.5412,-1.5297,-1.5187,-1.5301,-1.5295,-1.527,-1.5078,-1.5027,-1.501,-1.4833,-1.4929,-1.4919,-1.4912,-1.4908,-1.4567,-1.4565,0,0,0,0,0,0,-1.5753,-1.5711,-1.544,-1.5426,-1.5591,-1.5428,-1.5401,-1.534,-1.5189,-1.5168,-1.5269,-1.5268,-1.5046,-1.5023,-1.5001,-1.4867,-1.4917,-1.4907,-1.49,-1.4569,-1.4566,-1.4564,0,0,0,0,0,0,-1.5761,-1.5729,-1.545,-1.5567,-1.553,-1.542,-1.5352,-1.5335,-1.5284,-1.5165,-1.5144,-1.5238,-1.5046,-1.5017,-1.4896,-1.4857,-1.4901,-1.4891,-1.4571,-1.4568,-1.4565,-1.4598,0,0,0,0,0,0,-1.5772,-1.5733,-1.5693,-1.5567,-1.5524,-1.5351,-1.535,-1.5329,-1.5266,-1.5263,-1.513,-1.511,-1.5046,-1.4913,-1.4884,-1.4843,-1.4882,-1.4574,-1.457,-1.4566,-1.46,-1.4596,-1.4593,0,0,0,0,0,-1.5785,-1.5709,-1.5691,-1.5659,-1.5473,-1.5349,-1.5324,-1.5255,-1.5264,-1.5221,-1.5145,-1.5114,-1.4867,-1.4901,-1.4868,-1.4822,-1.4576,-1.4571,-1.4566,-1.4601,-1.4597,-1.4593,0,0,0,0,0,0,-1.5828,-1.5691,-1.567,-1.5551,-1.5463,-1.5338,-1.5282,-1.5252,-1.5156,-1.5156,-1.5071,-1.5042,-1.4927,-1.4862,-1.4903,-1.4712,-1.472,-1.4709,-1.4758,-1.4753,-1.475,-1.4767,-1.4873,0,0,0,0,0,-1.5825,-1.5739,-1.5622,-1.5528,-1.5486,-1.5392,-1.5335,-1.5291,-1.5194,-1.5155,-1.5069,-1.4973,-1.4874,-1.481,-1.4712,-1.4591,-1.4561,-1.4544,-1.454,-1.4538,-1.4528,-1.446,-1.4451,-1.4547,-1.4547,-1.4548,0,0,-1.5814,-1.5729,-1.5679,-1.5535,-1.5461,-1.5372,-1.536,-1.5265,-1.5197,-1.5139,-1.502,-1.4954,-1.4842,-1.4721,-1.4663,-1.4663,-1.4496,-1.4532,-1.4531,-1.4522,-1.4454,-1.4445,-1.4437,-1.4544,-1.4545,-1.4545,0,0,-1.5751,-1.5678,-1.5593,-1.5521,-1.5411,-1.535,-1.533,-1.521,-1.5165,-1.5046,-1.5001,-1.4917,-1.4748,-1.4671,-1.4609,-1.4521,-1.4488,-1.4491,-1.4473,-1.4407,-1.4399,-1.4392,-1.436,-1.435,-1.4482,-1.4482,-1.4482,0,-1.5751,-1.5617,-1.5551,-1.546,-1.5398,-1.5346,-1.5258,-1.5189,-1.5052,-1.5008,-1.5013,-1.4802,-1.4722,-1.4582,-1.4562,-1.4514,-1.4486,-1.4504,-1.4407,-1.4399,-1.4391,-1.4359,-1.4347,-1.4483,-1.4483,-1.4483,-1.4483,0,-1.5623,-1.5531,-1.5475,-1.5349,-1.528,-1.519,-1.5109,-1.5046,-1.5009,-1.4947,-1.4826,-1.473,-1.4612,-1.4576,-1.4536,-1.4431,-1.4435,-1.4424,-1.443,-1.4384,-1.4353,-1.434,-1.4484,-1.4484,-1.4484,-1.4483,0,0,-1.5575,-1.5418,-1.5398,-1.5342,-1.5219,-1.5145,-1.5053,-1.4943,-1.4891,-1.4798,-1.4718,-1.4579,-1.4569,-1.4499,-1.445,-1.4393,-1.4329,-1.4388,-1.4385,-1.438,-1.4207,-1.4215,-1.4203,-1.4309,-1.4306,-1.4304,-1.4216,0,-1.5495,-1.5333,-1.5273,-1.5138,-1.5052,-1.5004,-1.4924,-1.4839,-1.4779,-1.4695,-1.4628,-1.4531,-1.4525,-1.4483,-1.4425,-1.435,-1.4293,-1.4355,-1.423,-1.4226,-1.4258,-1.4186,-1.4193,-1.4115,-1.4204,-1.4202,-1.42,0,-1.5379,-1.5291,-1.515,-1.504,-1.5002,-1.4931,-1.4826,-1.4748,-1.465,-1.4611,-1.4536,-1.4492,-1.4391,-1.4407,-1.4267,-1.4311,-1.4256,-1.4212,-1.4207,-1.419,-1.4209,-1.4167,-1.4089,-1.4077,-1.418,-1.4182,-1.4183,0,-1.5358,-1.5204,-1.51,-1.5052,-1.4922,-1.4874,-1.4816,-1.4721,-1.4659,-1.4567,-1.4526,-1.4422,-1.4364,-1.4283,-1.4211,-1.4229,-1.4078,-1.4087,-1.404,-1.4042,-1.4008,-1.4011,-1.3919,-1.3976,-1.3977,-1.3977,-1.3977,0,-1.5273,-1.5188,-1.5089,-1.5025,-1.4928,-1.4859,-1.4764,-1.4704,-1.462,-1.4541,-1.4492,-1.4419,-1.433,-1.4244,-1.4187,-1.408,-1.4054,-1.4018,-1.4003,-1.4021,-1.4026,-1.3982,-1.3985,-1.3974,-1.3974,-1.3975,-1.3976,0,-1.5232,-1.5163,-1.5046,-1.4935,-1.4905,-1.4838,-1.4741,-1.4675,-1.4616,-1.4517,-1.449,-1.4395,-1.4292,-1.4214,-1.4079,-1.4041,-1.3927,-1.3912,-1.3961,-1.3953,-1.3911,-1.3916,-1.3786,-1.3765,-1.3839,-1.3838,-1.3838,0,-1.5182,-1.5116,-1.5,-1.4946,-1.4891,-1.4803,-1.4742,-1.4672,-1.4609,-1.4496,-1.4443,-1.4339,-1.4251,-1.4088,-1.4005,-1.3902,-1.3883,-1.3846,-1.3867,-1.3888,-1.3881,-1.3886,-1.3879,-1.3842,-1.3841,-1.3841,-1.3841,0,-1.51,-1.507,-1.4985,-1.4889,-1.4818,-1.4738,-1.4656,-1.4614,-1.4529,-1.4461,-1.4358,-1.4291,-1.4156,-1.4052,-1.3941,-1.3879,-1.3845,-1.3836,-1.3819,-1.3835,-1.3866,-1.3848,-1.3952,-1.3838,-1.3838,-1.3838,-1.3838,-1.3839,-1.5051,-1.4991,-1.4901,-1.4809,-1.4742,-1.4667,-1.4602,-1.4536,-1.4451,-1.4338,-1.4302,-1.4195,-1.41,-1.3949,-1.3887,-1.3801,-1.38,-1.3776,-1.3769,-1.3764,-1.3766,-1.3883,-1.378,-1.378,-1.378,-1.378,-1.378,0,-1.4965,-1.4906,-1.4823,-1.4713,-1.4641,-1.4621,-1.4531,-1.447,-1.4378,-1.4295,-1.4211,-1.4093,-1.3993,-1.3905,-1.38,-1.3748,-1.373,-1.3723,-1.3724,-1.3711,-1.3773,-1.3797,-1.3739,-1.3739,-1.3739,-1.3739,-1.3739,-1.3739,-1.4912,-1.4811,-1.4771,-1.4635,-1.4575,-1.4474,-1.4424,-1.4355,-1.4289,-1.4161,-1.4079,-1.4024,-1.3938,-1.3827,-1.3734,-1.371,-1.3673,-1.367,-1.3642,-1.3701,-1.3706,-1.3711,-1.3733,-1.3663,-1.3663,-1.3587,-1.3586,-1.3586]}]]